Location: Huntsville
(41.2590°N, 111.7678°W)
Time: 19:56:15
(UTC+00:00)

Explorer 7 - Pass Details

Date: 21 June 2021
Orbit: 484 x 676 km, 50.3° (Epoch: 30 July)

Event Time Altitude Azimuth Distance (km) Brightness Sun altitude
Rises 06:19:44 0° 283° (WNW) 3,021 11.0 -23.3°
Reaches altitude 10° 06:22:25 10° 295° (WNW) 2,097 10.3 -23.5°
Maximum altitude 06:26:35 28° 354° (N) 1,238 9.3 -23.7°
Drops below altitude 10° 06:30:39 10° 53° (NE) 2,032 9.9 -23.9°
Sets 06:33:12 0° 66° (ENE) 2,909 10.6 -24.0°
